Medicine Lodge, KS

1:00 PM CDT on May 22, 2017 (GMT -0500)
Medicine Lodge

Weather History for KP28 - January, 2013

Change the Weather History Date:

Tuesday, January 29, 2013

  Actual Average Record
Temperature  
Mean Temperature 45 °F 35 °F  
Max Temperature 57 °F 47 °F 75 °F (1971)
Min Temperature 33 °F 22 °F -10 °F (1902)
Degree Days  
Heating Degree Days 20 30  
Month to date heating degree days 784 916  
Since 1 July heating degree days 2366 2715  
Cooling Degree Days 0 0  
Month to date cooling degree days 0 0  
Year to date cooling degree days 0 0  
Moisture  
Dew Point 35 °F    
Average Humidity 84    
Maximum Humidity 100    
Minimum Humidity 67    
Precipitation  
Precipitation 0.00 in 0.03 in 0.45 in (1902)
Month to date precipitation 0.56 0.65  
Year to date precipitation 0.56 0.65  
Snow  
Snow 0.00 in 0.10 in - ()
Month to date snowfall T 3.0  
Since 1 July snowfall 1.0 5.9  
Snow Depth 0.00 in    
Sea Level Pressure  
Sea Level Pressure 29.62 in    
Wind  
Wind Speed 13 mph (North)    
Max Wind Speed 23 mph    
Max Gust Speed 31 mph    
T = Trace of Precipitation, MM = Missing Value Source: NWS Daily Summary

Daily Weather History Graph

Daily Weather History Graph

Search for Another Location

Airport or City:

Trip Planner

Search our weather history database for the weather conditions in past years. The results will help you decide how hot, cold, wet, or windy it might be!

Date:

Astronomy

Jan. 29, 2013 Rise Set
Actual Time 7:39 AM CST 5:55 PM CST
Civil Twilight 7:11 AM CST 6:23 PM CST
Nautical Twilight 6:40 AM CST 6:54 PM CST
Astronomical Twilight 6:09 AM CST 7:25 PM CST
Moon 8:48 PM CST (1/29) 8:41 AM CST (1/29)
Length of Visible Light 11h 11m
Length of Day
10h 16m
Waning Gibbous, 93% of the Moon is Illuminated
Jan 29
Waning Gibbous
Feb 3
Last Quarter
Feb 10
New
Feb 17
First Quarter
Feb 25
Full

Hourly Weather History & Observations

Time (CST) Temp. Windchill Dew Point Humidity Pressure Visibility Wind Dir Wind Speed Gust Speed Precip Events Conditions
12:56 AM 52.0 °F - 51.1 °F 97% 29.62 in - ENE 3.5 mph - N/A   Unknown
1:56 AM 54.0 °F - 50.0 °F 86% 29.60 in - South 5.8 mph - N/A   Unknown
2:56 AM 52.0 °F - 46.9 °F 83% 29.61 in - SSW 5.8 mph - N/A   Unknown
3:56 AM 43.0 °F 36.8 °F 37.0 °F 80% 29.64 in - North 11.5 mph - N/A   Unknown
4:56 AM 41.0 °F 33.9 °F 37.0 °F 86% 29.65 in - NNW 12.7 mph - N/A   Unknown
5:56 AM 39.9 °F 33.4 °F 37.0 °F 89% 29.66 in - North 10.4 mph - N/A   Unknown
6:56 AM 39.9 °F 32.9 °F 37.0 °F 89% 29.65 in - NNE 11.5 mph - N/A   Unknown
7:56 AM 39.0 °F 31.0 °F 36.0 °F 89% 29.60 in - North 13.8 mph - N/A   Unknown
8:56 AM 39.9 °F 35.8 °F 37.0 °F 89% 29.58 in - NE 5.8 mph - N/A   Unknown
9:56 AM 41.0 °F 32.2 °F 36.0 °F 82% 29.62 in - NNW 18.4 mph 23.0 mph N/A   Unknown
10:56 AM 42.1 °F 34.5 °F 35.1 °F 76% 29.63 in - North 15.0 mph - N/A   Unknown
11:56 AM 43.0 °F 35.1 °F 34.0 °F 71% 29.60 in - North 17.3 mph 26.5 mph N/A   Unknown
12:56 PM 43.0 °F 35.7 °F 32.0 °F 65% 29.58 in - North 15.0 mph - N/A   Unknown
1:56 PM 42.1 °F 34.2 °F 32.0 °F 67% 29.56 in - North 16.1 mph - N/A   Unknown
2:56 PM 43.0 °F 36.4 °F 32.0 °F 65% 29.57 in - North 12.7 mph - N/A   Unknown
3:56 PM 39.9 °F 32.5 °F 30.9 °F 70% 29.57 in - North 12.7 mph - N/A   Unknown
4:56 PM 39.0 °F 31.4 °F 30.9 °F 73% 29.61 in - North 12.7 mph - N/A   Unknown
5:56 PM 37.9 °F 31.5 °F 30.0 °F 73% 29.61 in - North 9.2 mph - N/A   Unknown
6:56 PM 37.0 °F 28.1 °F 30.0 °F 76% 29.63 in - NNW 15.0 mph 21.9 mph N/A   Unknown
7:56 PM 36.0 °F 27.1 °F 30.0 °F 79% 29.65 in - NNW 13.8 mph - N/A   Unknown
8:56 PM 35.1 °F 25.2 °F 33.1 °F 92% 29.66 in - NNW 16.1 mph 23.0 mph N/A   Unknown
9:56 PM 34.0 °F 24.2 °F 30.9 °F 89% 29.68 in - NNW 15.0 mph 24.2 mph N/A   Unknown
10:56 PM 34.0 °F 24.2 °F 30.9 °F 89% 29.69 in - NNW 15.0 mph 25.3 mph N/A   Unknown
11:56 PM 33.1 °F 20.6 °F 28.9 °F 85% 29.70 in - North 23.0 mph 28.8 mph N/A   Unknown